Theta_e
323 323 324 323 323 323 322 322 322 322 322 322 322 322 322 323 323 323 324 324 324 325 325 325 326 325 325 326 326 326 322 311 310 306 302 301 311 334 334 334 336 336 328 302 301 301 299 297 300 298 301 299 299 299 299 299 297 296 289 285 286 284 285 288 288 289 287 289 290 290 290 292 291 293 296 296 295 292 294 299 295 303 308 314 314 308 309 318
323 322 323 322 321 322 322 322 322 322 322 322 322 322 322 322 322 323 323 323 324 324 324 325 325 325 325 325 326 324 316 312 307 304 304 313 333 336 334 336 332 336 316 302 300 297 297 297 296 296 298 298 298 299 299 298 297 290 286 287 288 285 289 291 289 290 290 291 290 291 288 291 292 292 294 294 292 293 296 295 294 302 302 306 309 312 317 320
322 322 321 320 321 321 322 321 321 321 322 322 321 321 322 322 322 322 323 323 323 324 324 324 324 325 325 325 325 322 307 304 300 301 305 333 334 336 335 333 334 331 303 301 296 296 297 297 295 296 293 294 294 298 295 297 297 292 292 290 284 289 289 289 288 290 290 290 291 290 290 290 292 293 293 295 291 291 293 292 294 296 300 304 310 311 317 320
321 321 320 320 320 321 321 321 321 321 321 321 321 321 321 321 321 322 322 322 323 323 323 324 324 324 324 324 325 312 304 298 295 296 301 335 333 335 336 333 334 322 305 300 297 297 295 295 293 296 294 291 291 295 295 296 296 293 289 285 291 289 293 292 288 288 288 290 290 290 289 290 291 291 293 290 293 291 291 290 297 296 296 308 313 312 316 319
321 320 320 320 320 320 321 321 321 321 321 321 321 321 321 320 321 321 321 322 322 323 323 323 324 324 324 324 323 310 299 291 293 297 310 332 335 334 334 336 328 309 309 301 299 296 295 295 294 292 294 291 292 293 291 293 292 291 292 289 290 288 292 293 288 290 289 287 290 287 292 291 291 292 289 292 291 290 294 297 295 297 298 311 313 315 315 318
320 319 319 320 320 320 320 320 321 320 321 321 321 320 320 320 320 320 321 321 321 322 322 323 323 323 324 323 312 304 296 286 298 307 323 334 333 335 333 332 323 303 302 299 298 297 298 297 298 296 290 292 292 292 292 291 292 294 289 288 287 287 293 291 290 290 288 289 290 289 291 291 291 292 287 291 294 291 292 293 294 293 303 312 315 316 317 317
320 320 319 319 319 319 320 320 320 320 320 321 320 319 319 319 319 320 320 320 321 321 322 323 323 323 323 318 309 304 296 294 304 311 326 330 333 333 332 326 317 301 300 299 299 298 293 293 293 291 288 289 290 290 292 293 289 288 291 289 292 287 293 288 291 288 287 291 290 290 291 292 290 293 289 289 293 291 291 289 289 294 310 313 314 316 318 318
319 319 319 319 319 318 320 319 319 320 320 320 319 318 319 319 319 319 319 320 320 321 321 322 323 323 321 306 301 297 297 296 305 310 322 326 319 328 318 305 302 301 300 299 297 294 293 293 294 291 289 291 291 292 294 293 291 291 291 289 290 289 290 288 286 286 287 288 289 289 291 292 288 290 289 289 294 293 291 293 297 307 310 310 314 315 316 316
319 319 319 318 318 319 319 319 319 320 320 320 318 318 318 318 318 318 318 319 320 320 321 322 322 322 322 300 294 293 292 301 310 312 312 306 306 309 307 306 304 301 299 297 297 296 297 293 291 293 293 290 292 292 291 292 291 289 291 288 289 291 289 288 289 287 288 290 288 291 290 289 288 289 291 293 292 290 293 299 302 307 308 310 312 315 315 315
319 319 319 318 319 319 317 316 318 320 319 318 317 317 317 318 318 318 318 319 319 320 321 322 323 320 307 298 295 289 296 309 311 308 305 302 303 306 305 304 301 300 301 298 295 295 298 294 295 294 293 291 292 291 289 292 289 288 288 288 290 290 290 290 291 289 288 290 288 291 289 291 290 290 288 290 288 289 296 298 300 306 307 309 310 312 313 314
319 319 318 319 318 317 317 315 316 318 317 317 316 317 317 318 318 318 318 319 319 319 320 321 322 317 303 297 291 289 305 309 309 306 304 303 304 305 304 303 301 301 299 300 298 295 297 295 294 295 297 293 292 290 290 292 289 289 290 289 290 286 290 289 290 290 289 293 287 290 290 290 289 290 289 290 289 290 294 296 300 300 304 307 308 309 311 312
319 319 319 319 317 317 316 316 315 316 316 316 316 317 317 317 317 318 318 318 319 319 320 321 320 307 295 296 291 293 303 309 308 306 306 305 304 306 304 302 302 302 301 298 301 302 296 295 296 294 292 294 291 291 292 291 291 289 292 291 287 284 292 289 291 290 289 292 290 289 291 290 290 289 289 287 288 293 292 294 296 298 299 301 304 306 308 312
318 319 318 318 317 317 316 316 315 315 315 314 315 317 317 317 317 317 318 318 319 320 320 321 315 308 299 292 293 298 303 306 309 305 306 305 304 303 303 303 303 300 299 300 299 302 298 297 296 296 294 292 289 290 291 290 288 290 288 284 287 284 285 290 287 289 291 291 289 289 285 283 286 291 292 290 285 290 293 292 292 294 294 294 297 304 307 306
318 318 318 317 316 316 316 316 315 315 314 314 316 316 316 316 317 317 318 317 319 320 322 319 308 304 294 289 299 307 308 308 309 305 304 305 304 305 303 302 302 301 303 301 301 299 299 295 297 295 294 293 292 297 293 287 287 289 288 284 282 285 284 287 288 287 291 290 287 289 283 281 282 287 284 285 286 291 291 290 291 291 291 291 292 296 303 306
317 317 317 316 316 315 316 316 315 314 314 315 315 315 316 316 317 317 318 318 320 320 321 318 303 297 292 292 300 306 320 309 305 305 305 304 302 303 303 303 302 301 300 302 302 300 298 299 298 293 294 292 294 292 285 284 283 281 285 282 279 282 281 284 287 287 289 291 287 288 283 284 285 285 285 287 288 288 290 289 289 288 290 290 290 292 295 300
317 317 317 316 315 315 315 315 315 314 314 315 315 315 316 316 317 318 319 319 320 321 311 309 304 293 289 290 304 315 306 302 302 304 306 305 304 303 302 300 302 300 300 301 300 299 298 300 295 292 293 293 290 287 284 286 284 281 282 279 283 282 280 284 291 286 288 291 289 288 284 282 288 288 287 287 287 288 288 288 287 288 288 289 290 291 292 293
317 317 316 315 315 314 314 314 314 314 315 315 315 315 316 317 318 319 320 319 313 316 311 304 304 294 291 298 304 302 300 302 305 306 305 304 304 301 301 300 300 299 299 299 299 300 297 296 293 292 289 288 284 288 285 281 279 285 280 281 280 282 281 284 285 288 288 289 289 286 287 283 287 286 284 286 288 289 289 289 289 289 289 290 289 290 292 292
317 316 316 315 315 313 313 312 313 314 315 315 315 315 313 318 319 319 316 311 310 311 307 305 297 294 292 297 295 297 301 303 306 302 303 303 300 300 299 299 297 297 299 299 297 296 295 293 291 290 287 287 287 286 285 281 284 280 283 282 283 281 280 281 285 288 289 288 288 286 287 289 291 291 291 290 288 290 290 291 291 290 290 290 289 290 291 292
317 316 316 315 314 313 312 312 313 314 315 315 316 317 318 319 310 309 304 302 294 293 292 293 292 285 284 291 297 302 304 304 303 303 304 304 303 300 299 298 298 300 295 291 293 295 292 292 291 287 286 284 287 288 286 284 284 285 285 283 279 283 283 283 283 284 288 288 288 285 287 288 289 290 292 291 288 289 289 287 288 289 290 291 291 291 291 293
316 315 315 314 313 313 312 313 313 314 315 314 313 311 300 296 298 298 299 299 291 290 291 293 292 291 297 297 300 304 305 304 301 299 304 303 303 300 298 297 297 293 292 292 293 293 291 288 286 286 288 288 288 286 286 285 285 284 281 279 281 280 282 282 284 287 285 288 286 284 284 284 289 291 292 293 289 288 288 290 290 290 290 290 291 292 293 293
316 315 314 314 313 312 313 313 314 314 316 310 310 298 290 292 289 288 293 294 294 294 293 294 294 297 297 300 300 299 299 297 299 300 303 307 301 300 295 295 293 291 289 289 292 292 290 287 286 287 289 289 287 285 285 285 284 286 282 282 281 282 285 286 288 286 285 288 284 280 284 287 288 289 290 290 287 289 290 290 290 291 291 291 290 291 292 294
315 314 314 313 313 313 313 313 314 315 315 310 308 297 295 292 296 296 295 289 293 296 295 295 296 299 300 300 301 299 296 294 298 300 303 303 300 297 292 291 289 291 290 290 290 290 287 286 288 288 285 285 284 283 283 285 283 282 284 280 283 283 282 284 285 285 285 288 283 280 284 288 290 290 291 290 291 291 289 290 291 291 291 291 291 291 292 292
314 314 313 314 313 313 314 314 314 315 310 307 305 302 298 302 303 301 295 291 291 296 296 296 296 297 298 300 300 300 295 291 292 297 301 301 298 297 293 291 288 288 290 290 289 285 286 286 288 286 286 288 284 283 285 284 282 281 281 283 283 282 285 284 284 285 285 285 286 284 283 288 288 286 287 290 289 288 287 287 289 289 291 292 293 291 292 292
313 314 314 315 314 314 315 315 316 312 307 307 303 302 304 302 304 301 293 289 289 294 296 296 297 296 296 299 302 295 293 292 294 296 300 300 296 294 293 288 288 289 289 287 289 289 284 287 286 286 286 290 286 285 286 286 285 282 280 280 282 285 283 282 286 284 281 284 282 281 284 284 279 281 281 283 282 283 284 284 286 289 289 290 290 290 290 291
314 314 315 315 314 315 315 316 309 306 304 302 302 304 303 303 303 302 292 287 287 292 298 297 298 297 299 304 302 298 293 295 297 297 299 298 293 293 293 289 289 288 288 286 286 287 286 287 285 286 285 285 286 284 284 287 282 285 282 283 283 282 284 284 283 285 277 282 281 280 279 274 276 278 280 282 282 286 284 285 288 288 286 286 288 290 290 291
315 315 315 315 315 315 317 306 303 304 303 301 302 305 304 304 303 298 291 284 282 287 294 291 299 296 304 298 299 296 296 293 295 297 301 297 298 294 291 289 289 289 285 286 288 284 286 287 286 287 287 285 286 286 284 286 282 283 286 283 283 283 283 282 283 281 279 279 282 280 280 275 277 281 285 283 282 286 286 284 287 287 287 284 287 288 288 288
315 315 315 316 317 317 306 297 303 304 299 300 302 304 304 304 302 299 290 280 279 289 288 294 294 294 301 297 299 294 287 287 299 297 297 300 297 297 291 287 288 287 288 287 287 286 288 287 286 287 286 286 285 285 285 286 284 285 283 282 283 284 284 282 281 282 279 279 282 278 275 277 278 283 280 278 281 284 285 288 288 288 286 286 286 286 286 287
315 316 316 316 317 315 306 303 302 301 299 301 302 304 305 303 298 294 286 275 274 292 288 288 294 299 300 296 295 290 290 294 292 295 297 298 297 292 289 286 289 289 287 287 283 286 287 286 286 286 284 284 286 285 286 285 285 284 283 284 283 283 281 280 280 278 278 280 280 276 282 278 277 280 280 279 284 283 286 287 285 285 286 286 287 288 287 286
317 317 316 317 317 316 311 306 301 299 301 301 301 303 303 298 293 289 281 274 287 286 299 290 301 299 294 296 292 290 293 293 289 293 296 297 297 295 289 287 286 287 286 287 285 286 288 288 288 288 286 285 284 285 283 287 287 285 283 283 282 281 280 279 277 279 278 278 272 278 280 275 277 278 279 278 283 283 283 283 285 286 287 287 289 290 290 288
318 317 317 318 317 314 312 310 303 303 301 301 301 299 297 294 292 284 277 272 290 284 290 292 293 290 291 291 289 289 292 291 292 294 294 294 294 292 291 289 290 289 288 287 286 286 288 289 290 287 288 285 285 285 284 284 287 286 283 286 283 280 279 277 276 275 274 270 273 275 276 278 276 279 279 282 283 281 282 283 282 286 287 287 287 288 290 290
318 318 317 317 312 312 311 304 305 304 303 301 299 296 293 290 284 279 273 282 289 288 288 289 288 292 291 289 287 287 290 289 293 293 291 293 291 290 290 290 289 284 285 283 286 284 287 287 289 287 286 285 286 286 285 284 284 286 283 280 284 280 277 277 271 274 272 267 271 275 277 277 274 275 280 280 281 281 286 286 285 286 288 288 287 288 289 288
317 318 318 316 314 313 306 302 307 306 304 301 299 295 292 280 282 279 277 291 283 284 284 284 286 288 290 288 286 286 289 289 289 290 290 287 288 288 287 285 287 279 282 282 282 284 286 288 285 289 289 288 286 288 286 286 283 283 282 284 277 272 269 273 266 273 270 268 277 276 276 278 278 281 283 284 285 283 282 285 286 285 287 288 288 288 288 288
317 317 317 316 313 310 308 307 306 305 303 300 294 289 285 279 273 282 281 283 281 286 285 287 285 287 288 288 287 288 288 288 290 289 288 288 288 287 287 287 286 285 281 282 283 283 284 282 286 289 289 289 289 287 284 285 283 283 285 279 274 270 267 264 258 260 265 272 275 277 277 277 278 280 286 289 290 287 283 283 284 285 287 289 289 288 287 288
317 317 314 314 313 312 310 307 306 306 303 297 292 287 280 272 276 292 282 281 285 285 286 284 286 286 290 287 288 289 286 287 289 288 289 287 287 286 287 287 285 284 282 281 283 282 277 279 285 288 287 289 289 288 290 286 285 285 282 283 280 268 265 265 263 271 271 270 273 274 274 273 275 284 286 284 286 283 283 284 283 284 285 286 285 285 285 286
317 316 315 314 312 311 308 306 306 304 300 295 289 285 278 278 277 280 281 282 283 284 285 288 288 286 285 283 288 289 286 285 287 288 287 287 285 285 286 288 286 283 285 285 282 281 283 279 283 287 287 288 289 288 286 285 285 282 279 280 278 276 274 271 265 265 264 268 269 273 275 276 280 282 284 284 283 284 284 283 283 285 286 283 283 284 285 286
313 311 315 311 312 312 310 308 305 304 299 292 286 279 280 280 274 281 284 287 286 284 284 286 285 285 282 284 286 287 290 287 287 286 286 285 285 286 286 287 288 287 287 285 283 279 280 281 284 285 286 287 288 287 288 287 284 283 282 277 279 278 278 269 267 269 269 267 272 268 277 280 280 282 287 284 283 286 285 283 284 284 284 282 285 285 284 285
307 310 307 308 310 311 310 308 307 303 296 290 284 281 283 283 284 281 293 287 286 289 286 283 283 283 282 282 285 285 287 289 286 285 283 285 286 285 285 286 287 287 288 287 283 283 282 279 284 286 287 287 287 285 286 284 285 283 278 281 281 281 279 277 272 264 261 268 271 269 275 275 275 278 280 280 284 286 283 283 282 282 282 285 286 285 285 286
305 305 306 305 309 311 310 308 307 302 294 287 282 287 286 287 289 291 291 286 287 286 284 283 284 285 283 283 283 285 286 286 285 284 283 285 283 287 285 287 288 290 289 286 286 285 284 280 284 284 284 287 285 288 287 287 286 283 280 284 284 278 276 275 270 269 265 264 266 269 271 273 277 280 279 282 282 283 286 286 285 287 287 286 285 285 285 283
304 302 298 304 310 311 309 309 305 300 294 285 283 283 286 287 289 289 290 289 288 285 285 282 283 285 284 283 284 286 287 284 285 284 283 283 282 286 290 288 287 289 289 286 284 283 285 278 279 285 285 286 286 286 283 284 286 285 285 284 284 279 275 272 275 269 271 266 262 269 265 277 278 278 279 284 280 280 282 282 285 285 285 284 285 285 286 285
302 299 296 308 311 311 310 309 302 299 292 283 284 279 286 287 290 290 289 291 290 285 285 283 283 283 284 284 286 285 285 285 285 285 285 285 286 288 287 290 289 287 288 287 286 287 285 283 276 282 284 285 284 284 284 285 282 282 282 281 285 279 281 279 276 273 273 263 261 265 270 273 276 280 281 286 284 282 283 287 287 286 285 284 284 285 286 285
301 297 298 309 311 311 311 306 299 294 291 287 285 285 286 287 288 291 290 291 291 294 289 285 286 284 282 283 284 286 284 284 285 285 284 285 286 283 287 289 289 288 287 288 287 286 283 281 279 281 282 282 282 284 284 286 287 286 285 283 286 280 277 274 275 275 266 271 268 262 273 273 278 280 285 285 286 285 283 285 285 285 282 282 286 288 285 287
298 290 296 309 311 311 305 295 292 293 288 286 287 287 288 295 288 289 288 291 290 290 291 287 285 283 283 286 285 285 285 283 284 285 285 284 288 287 290 289 289 290 290 286 287 286 286 281 282 277 282 285 285 286 283 285 285 284 284 283 285 283 280 273 272 272 269 272 270 266 266 276 282 283 283 282 281 282 281 282 285 287 288 288 286 284 285 285
295 292 303 306 309 308 302 292 293 292 288 289 293 292 293 291 289 289 289 290 290 289 286 285 287 286 285 285 286 284 286 283 284 285 283 284 285 286 287 287 289 290 292 286 287 284 290 280 279 278 278 280 283 283 285 283 287 286 284 281 283 283 281 279 273 274 279 271 272 269 267 277 284 281 281 281 281 280 279 279 283 287 284 283 284 287 288 288
295 296 299 306 306 304 297 285 286 289 290 292 291 290 293 292 290 289 288 289 287 287 286 286 289 290 286 283 284 285 285 282 283 285 283 283 287 287 285 288 289 290 290 288 289 290 284 282 283 271 271 275 278 282 282 285 285 281 281 281 283 281 278 277 276 275 275 275 276 275 272 279 281 281 282 283 283 286 287 285 281 289 290 288 287 287 286 286
294 294 296 299 304 302 293 294 290 289 289 290 289 288 289 290 292 291 290 290 289 287 289 289 290 288 287 286 286 285 285 285 281 285 284 284 286 284 286 285 288 287 288 288 293 292 286 282 281 275 275 273 272 274 278 281 282 282 280 282 283 285 281 281 278 274 275 273 276 273 278 282 284 281 285 285 283 286 286 285 285 284 286 288 288 286 285 286
290 286 292 294 298 297 297 296 294 291 289 290 288 288 290 288 290 292 292 291 293 291 289 289 289 286 283 286 286 287 286 285 284 283 285 285 285 286 287 284 287 286 288 293 292 290 281 281 284 283 281 279 281 280 283 285 282 283 283 284 283 285 284 284 279 275 278 278 275 280 283 284 281 282 285 286 284 287 289 288 289 289 288 286 284 284 285 285
290 286 287 286 294 295 293 295 292 292 288 293 286 291 288 289 290 291 294 289 292 291 290 290 288 288 287 287 285 285 285 286 285 283 280 283 283 283 285 287 286 289 293 291 290 284 279 281 283 283 283 284 283 281 282 287 284 285 284 283 285 284 284 284 282 281 285 275 277 281 283 281 285 283 284 284 285 283 285 286 286 285 285 286 286 284 287 285
286 287 288 291 288 286 287 289 293 292 292 293 289 292 289 290 290 287 292 293 292 294 289 290 289 289 289 287 286 283 285 285 285 284 283 283 285 286 287 287 288 289 289 288 286 286 282 280 282 282 282 283 281 281 282 284 285 285 285 284 283 284 283 282 284 286 284 281 281 285 282 282 286 287 288 288 288 288 288 289 287 286 285 284 285 287 286 287
288 285 286 289 287 285 289 291 294 292 292 292 289 291 289 290 289 292 292 291 291 290 292 284 288 288 289 287 287 284 284 283 283 283 282 282 284 281 283 287 289 285 287 285 287 282 286 279 280 280 282 282 280 282 282 284 283 284 283 284 285 284 283 285 286 287 286 284 286 287 284 284 288 288 287 290 289 288 286 285 285 286 287 286 286 286 286 288
284 284 283 286 285 285 286 291 292 291 289 292 287 289 290 290 289 291 293 292 288 291 293 289 288 290 290 290 289 286 287 288 286 284 283 285 283 282 283 282 283 285 284 284 287 288 287 281 284 280 279 279 281 281 280 282 283 282 282 283 284 284 285 285 286 286 286 285 286 285 284 284 289 288 285 287 287 286 287 287 289 288 286 286 287 287 288 288
288 288 289 285 283 284 287 290 291 290 287 288 287 288 290 290 290 293 292 295 293 291 292 290 291 291 292 291 288 290 292 291 289 290 290 290 287 287 288 286 286 284 284 284 284 287 286 280 280 278 278 277 279 281 280 279 280 279 281 282 282 282 282 284 283 286 284 284 286 285 284 285 289 287 289 287 285 288 289 290 290 290 289 287 288 289 288 288
286 286 289 286 279 286 285 285 290 290 285 289 288 288 289 289 291 293 289 292 294 296 295 294 292 293 290 290 287 290 294 295 292 294 295 295 294 291 291 290 289 288 285 284 283 282 282 281 280 278 277 278 277 279 279 279 279 278 281 284 285 285 285 285 287 287 287 289 285 283 285 290 290 287 287 286 288 288 288 289 289 289 288 287 288 289 289 288
Wind_Speed
15 16 15 13 14 13 12 11 12 12 12 12 12 11 11 11 11 10 10 9 7 7 6 6 6 4 2 1 1 2 4 3 2 1 1 7 4 5 5 6 4 6 4 2 4 4 1 1 1 3 3 4 3 2 1 3 1 2 2 4 1 2 3 6 6 9 2 4 5 4 6 5 2 1 1 1 5 3 1 0 3 1 2 2 4 3 3 4
16 16 14 13 12 12 12 11 12 12 12 12 12 11 11 11 10 10 9 8 8 7 6 5 6 3 2 1 1 4 4 1 1 1 12 1 6 6 5 5 4 4 5 1 5 3 4 0 0 3 3 3 2 1 1 0 1 3 2 2 5 5 4 7 5 6 2 2 4 3 2 3 5 6 2 2 0 1 1 2 1 2 2 1 2 1 7 8
16 15 14 13 10 11 12 13 12 12 12 12 12 11 11 10 10 9 9 8 6 6 6 6 5 3 2 2 2 3 2 2 1 4 11 8 5 5 5 5 3 5 2 2 3 6 5 6 5 5 3 4 6 1 2 0 1 1 3 1 2 7 2 4 4 5 2 4 6 5 2 1 1 2 1 2 2 0 6 4 1 2 5 3 1 4 7 7
16 14 12 9 8 10 12 12 11 11 12 11 11 11 10 10 9 9 8 7 6 5 5 5 4 2 2 2 4 1 2 2 2 4 1 8 9 5 5 5 4 3 4 4 5 4 4 7 4 4 2 5 2 1 2 1 0 1 2 3 2 3 1 1 5 3 4 2 4 5 1 1 1 2 2 3 4 4 6 6 8 9 9 6 5 5 7 9
15 14 13 10 10 11 12 11 11 11 11 11 10 10 8 8 9 8 6 5 5 4 4 5 3 2 3 3 3 2 4 2 5 1 1 5 7 6 5 6 6 3 1 7 8 5 5 4 3 3 3 1 2 2 0 1 0 4 1 1 1 0 1 0 2 1 2 4 6 4 7 4 1 1 2 8 6 7 8 9 10 7 7 11 11 9 6 9
14 14 13 11 12 12 11 12 12 11 11 11 10 8 8 9 7 5 4 3 4 2 3 3 3 2 3 6 4 1 2 5 0 1 1 4 5 6 6 6 6 5 7 4 3 2 5 2 4 2 1 2 1 5 1 1 1 3 1 0 2 1 0 1 1 2 4 4 6 6 4 4 4 1 1 5 9 4 5 1 3 5 4 5 7 11 9 9
14 13 13 11 12 12 10 11 12 11 11 11 9 6 7 6 5 4 3 3 2 2 2 3 1 2 5 8 1 2 3 5 1 1 1 2 4 6 7 7 6 5 3 5 3 3 1 4 4 2 4 3 0 2 0 1 2 4 2 0 0 2 1 2 1 0 1 8 6 3 2 2 3 3 1 4 8 4 1 1 2 4 7 8 11 11 15 16
15 14 13 12 10 11 12 12 12 11 11 10 8 7 6 5 4 3 2 2 2 2 2 2 0 1 6 3 3 0 0 4 0 2 2 4 3 6 8 4 5 4 4 6 7 4 4 6 6 2 4 6 3 5 0 4 3 2 1 1 0 0 1 2 1 3 2 1 0 3 5 0 4 2 2 6 11 7 3 2 3 5 7 6 8 12 9 10
14 14 13 14 12 10 12 12 12 12 12 10 8 7 5 4 4 3 3 2 2 2 2 2 1 1 5 2 3 2 6 1 1 1 0 5 3 4 4 2 1 5 4 3 1 7 6 3 3 4 3 2 2 6 1 5 3 2 0 3 1 1 3 2 1 4 2 1 1 4 0 2 2 1 3 10 6 2 1 4 5 5 6 8 10 12 11 11
14 14 14 14 11 10 6 4 5 12 9 8 4 6 5 5 4 3 3 2 2 2 2 2 1 3 2 3 2 2 3 1 1 2 1 6 5 6 6 4 5 6 5 0 5 5 2 5 6 5 9 4 3 3 1 2 2 3 4 3 4 1 1 4 2 2 2 2 1 3 1 0 1 2 7 1 2 3 2 3 3 6 8 9 7 8 8 10
14 14 15 13 12 11 7 4 2 10 8 5 5 6 5 4 4 3 3 3 2 2 2 3 2 4 1 1 5 6 2 2 0 1 2 5 7 5 3 4 4 3 5 1 3 5 2 8 4 4 1 3 4 1 1 1 4 4 8 4 6 6 2 2 2 3 1 1 2 3 1 1 2 1 7 1 6 2 4 2 4 5 5 7 6 7 7 7
14 14 13 13 12 11 9 7 4 7 6 6 6 5 5 4 2 3 3 2 2 2 2 2 1 1 1 2 4 5 2 2 0 1 1 2 3 3 5 5 3 5 6 3 2 2 4 7 6 2 2 3 2 2 1 1 3 3 0 2 3 5 0 5 1 2 2 0 1 1 1 3 1 5 5 4 4 2 1 2 2 4 4 4 4 4 6 9
15 13 14 13 13 12 11 9 8 7 6 6 6 6 3 2 2 3 3 2 2 2 2 1 2 1 1 1 6 5 2 1 0 3 1 3 4 3 3 2 3 3 2 5 4 3 3 7 6 8 0 5 4 2 4 6 1 1 7 3 2 2 3 2 3 2 1 0 3 2 2 7 9 11 4 1 5 3 1 3 4 4 4 4 4 5 6 4
15 14 14 13 12 13 12 11 9 9 7 6 6 4 2 1 2 3 2 3 3 2 1 2 2 1 1 3 3 2 1 1 1 3 1 2 4 1 3 4 4 2 2 6 3 3 4 1 8 8 2 5 2 1 5 3 4 4 0 4 1 1 3 2 1 3 4 1 2 1 3 6 4 1 3 5 1 1 3 5 5 5 4 4 4 5 7 8
14 14 13 13 12 11 12 11 11 10 8 7 5 4 2 2 3 3 3 2 3 4 2 2 1 2 1 3 2 5 3 2 2 0 1 2 4 2 1 3 7 5 4 5 4 1 3 6 7 3 2 2 3 5 3 3 4 3 4 2 2 3 3 5 2 1 4 0 4 4 1 8 8 9 4 4 1 2 5 5 5 5 6 5 5 5 7 10
14 13 14 14 13 12 11 10 11 11 10 8 5 3 0 3 3 4 3 2 3 2 1 0 1 2 4 1 1 1 1 2 3 1 1 1 1 2 2 5 2 3 3 4 3 3 4 7 8 2 3 4 7 7 5 3 1 4 2 1 2 0 4 3 0 2 3 1 4 2 5 4 3 3 3 3 2 1 3 6 6 6 6 6 5 6 5 7
14 14 13 13 13 13 12 10 9 11 10 8 4 1 2 4 4 4 3 3 2 2 1 1 2 1 2 1 1 0 2 1 1 0 2 2 2 6 5 4 2 4 5 3 4 4 6 6 3 3 5 5 2 6 7 1 2 2 3 1 3 3 2 2 3 1 3 1 3 3 1 6 4 6 3 4 2 2 2 6 7 6 5 6 5 5 7 7
15 14 13 13 14 13 12 12 12 12 10 7 4 2 0 1 1 2 3 3 1 1 1 1 2 1 6 1 1 3 0 2 2 3 2 1 4 4 3 3 1 5 4 3 4 3 3 2 2 5 2 2 2 4 8 9 9 5 2 1 2 1 2 3 1 1 1 2 2 1 2 10 11 9 8 5 1 1 6 7 6 7 7 6 5 5 7 8
15 15 13 14 15 14 13 14 13 12 10 8 6 4 1 2 3 1 3 1 2 3 1 3 5 5 4 6 1 1 0 2 3 2 1 1 2 3 4 4 5 6 2 3 1 3 3 5 4 4 5 3 8 7 8 3 7 8 10 6 4 4 3 2 3 2 0 1 2 2 6 7 9 9 10 4 1 2 6 5 6 8 8 8 7 7 7 9
15 16 15 16 14 13 15 15 14 13 12 6 4 2 2 4 1 2 1 1 1 1 1 4 3 2 1 3 4 1 2 0 5 4 0 1 1 3 6 2 3 6 4 5 1 2 1 6 7 9 8 7 5 4 4 3 7 5 5 4 3 2 1 2 2 2 0 1 3 3 4 5 11 11 11 10 0 3 6 8 8 8 8 8 9 8 9 9
16 17 17 15 13 15 16 15 15 13 9 3 4 3 5 8 10 2 2 2 1 1 0 2 2 1 1 1 0 3 5 2 2 1 0 0 1 7 1 2 2 3 1 1 5 0 3 4 7 6 8 9 6 7 9 8 4 6 6 5 1 1 1 0 0 2 3 1 1 1 2 8 11 10 11 7 2 8 10 10 9 11 9 8 8 10 11 13
18 17 16 16 16 16 16 16 15 12 10 3 3 3 1 2 0 2 5 2 1 0 1 1 0 3 1 2 1 2 4 3 3 1 1 1 1 5 2 4 3 8 0 2 4 3 3 9 7 5 4 10 7 5 4 6 6 3 6 4 4 2 2 3 1 3 4 0 4 1 4 9 11 10 11 8 10 6 5 6 7 6 9 8 7 10 12 8
17 16 18 18 17 17 17 15 14 10 5 5 5 1 2 1 1 2 2 4 2 1 1 1 3 2 1 3 1 1 2 2 5 2 1 1 1 1 5 4 4 4 1 3 9 5 3 5 8 5 7 10 3 4 9 8 6 6 5 4 5 2 2 1 3 2 4 2 2 1 5 11 8 6 11 12 6 6 5 6 9 7 11 13 11 6 8 11
17 18 17 18 17 17 15 14 11 6 1 5 2 6 1 1 1 1 1 3 3 1 0 1 1 2 3 4 3 3 3 1 4 6 3 3 6 2 5 4 6 4 6 3 8 9 6 1 1 9 5 10 6 2 6 6 2 1 4 4 4 2 2 2 1 0 1 1 2 2 3 9 4 5 5 2 3 3 4 4 6 9 9 9 8 9 8 12
18 16 16 18 15 15 14 13 5 2 3 1 4 4 1 2 3 1 4 2 2 0 1 1 3 1 2 1 1 1 1 2 0 0 1 4 4 4 3 2 4 3 3 2 4 4 1 1 3 7 3 4 7 3 4 8 2 0 4 5 4 4 6 0 1 2 3 1 5 3 3 3 4 6 8 10 7 8 3 6 9 9 5 3 7 11 6 7
17 16 16 15 16 16 15 6 2 5 6 5 4 2 1 3 2 0 6 3 2 2 2 5 0 3 1 0 1 2 4 1 1 1 1 2 3 3 1 2 1 7 2 5 6 3 1 0 1 5 6 4 5 5 5 5 6 4 4 4 2 6 6 6 3 3 0 1 2 1 1 5 6 4 6 5 8 12 8 3 11 8 7 5 8 7 7 7
16 15 16 16 17 17 9 5 3 9 4 4 4 2 2 3 0 0 2 4 3 4 6 1 1 1 2 0 2 4 6 4 0 2 2 3 1 1 5 4 2 3 2 2 2 2 2 1 4 4 5 5 5 4 4 8 8 4 0 6 7 8 7 5 5 2 1 1 3 4 3 1 7 8 4 4 5 9 10 11 8 7 7 7 7 7 6 7
18 18 17 17 17 13 0 5 9 7 4 1 3 5 4 3 1 1 4 4 3 3 3 2 1 2 1 0 5 2 1 2 4 2 0 2 1 3 3 6 6 8 2 4 7 1 2 4 4 4 2 4 7 3 3 4 6 1 2 5 4 6 5 5 5 5 0 1 5 4 1 0 5 8 3 2 3 7 10 10 8 7 7 6 7 7 6 6
16 17 17 14 17 10 4 4 5 5 1 2 3 5 4 4 3 5 4 3 0 3 4 4 4 1 1 1 4 1 1 4 2 1 2 1 4 2 2 3 4 6 4 2 7 1 3 1 3 5 5 6 2 1 1 3 4 1 6 8 8 7 7 4 4 4 1 1 5 3 1 2 9 6 6 2 2 7 8 6 6 6 6 6 7 7 6 5
16 15 15 16 13 5 1 2 1 0 3 3 4 5 4 3 2 2 3 6 3 2 1 0 1 6 2 7 1 4 2 2 1 0 3 3 2 6 3 3 5 5 2 6 7 3 1 3 4 3 2 2 5 3 0 2 1 9 4 8 7 8 5 3 6 2 3 1 5 4 4 1 5 5 5 3 3 3 2 4 4 5 5 5 4 4 5 5
17 17 14 15 7 5 4 3 4 3 3 4 4 5 5 7 4 4 5 5 4 1 2 0 2 3 9 12 6 2 4 1 1 3 2 1 2 4 2 4 4 6 4 5 3 5 2 1 1 0 3 3 3 5 5 3 4 4 3 4 6 4 7 5 5 5 1 5 4 1 1 0 6 6 5 7 5 5 2 3 5 5 7 7 6 6 6 4
18 18 17 11 5 5 5 4 4 5 5 5 4 5 6 4 2 9 5 2 2 5 4 5 1 4 11 2 5 4 6 2 0 3 8 5 6 7 6 8 5 5 2 5 4 1 2 2 1 3 3 5 3 9 5 2 4 5 7 7 6 2 4 2 4 1 4 5 1 2 2 1 9 10 7 7 10 5 6 7 6 5 8 8 7 8 7 5
18 16 17 7 7 3 1 2 6 5 5 3 5 4 5 5 8 9 2 4 2 4 5 4 5 6 6 6 5 2 1 6 1 1 3 1 6 2 0 2 5 6 8 3 4 2 3 1 2 2 1 3 4 10 2 1 2 4 8 6 6 2 1 2 2 1 5 5 4 1 1 4 4 8 13 17 13 2 4 7 7 6 7 9 9 9 8 8
15 17 10 4 4 2 3 4 5 6 5 3 6 6 5 4 8 3 4 3 1 2 5 3 4 4 10 8 8 6 4 2 5 2 2 3 4 7 5 2 4 2 6 2 7 6 3 4 6 6 2 2 1 3 11 8 8 5 1 6 8 8 5 3 4 4 5 4 2 3 1 6 3 1 1 7 8 5 4 5 5 6 9 9 6 9 9 8
15 10 7 5 3 1 5 4 5 4 5 6 5 8 10 12 2 8 7 3 2 1 3 1 9 8 3 3 0 1 3 2 0 5 3 7 7 5 10 9 2 4 3 10 4 3 7 3 3 2 1 1 7 1 3 6 5 0 3 6 5 5 6 1 3 2 0 1 2 1 6 4 5 3 9 5 6 7 4 5 2 6 8 5 4 3 5 5
10 3 5 3 4 3 4 4 4 4 5 7 7 7 13 7 4 2 4 4 2 5 5 6 3 5 0 2 1 4 3 4 3 3 1 4 1 8 3 2 7 8 8 8 4 4 3 4 1 6 3 2 0 1 1 1 7 4 4 3 4 2 10 6 1 1 1 3 7 1 8 7 8 7 10 6 4 8 1 4 2 5 5 4 3 2 4 4
5 4 6 3 1 2 3 4 5 6 4 6 8 12 4 1 1 4 1 5 5 13 8 12 5 7 7 7 6 7 3 5 3 4 5 1 3 4 3 5 2 4 5 10 1 3 9 3 2 3 1 1 0 1 3 5 2 8 1 7 2 2 5 5 3 2 4 3 8 2 8 5 3 7 5 4 3 8 5 5 3 5 4 3 4 3 3 4
4 2 3 2 1 2 3 3 5 4 5 7 11 4 1 3 1 1 0 4 5 0 6 5 1 6 7 8 7 8 3 7 8 2 5 6 4 5 6 2 4 9 6 2 4 3 6 2 0 1 0 5 2 0 4 2 2 3 3 4 6 3 1 2 4 1 0 2 6 4 2 5 7 7 5 3 1 5 8 5 1 4 4 3 4 4 6 5
2 3 3 1 1 3 2 3 3 4 5 7 10 6 1 1 0 2 1 2 1 4 7 4 5 3 4 9 5 3 8 9 8 6 7 4 5 4 12 6 2 4 6 5 3 1 1 5 2 1 1 1 2 3 8 2 3 2 3 4 0 3 2 4 6 3 5 4 2 8 3 7 7 6 8 7 4 3 5 5 6 7 6 4 4 3 4 3
2 3 1 1 2 2 2 4 3 3 4 13 10 1 1 2 1 1 1 3 1 2 3 4 1 5 3 3 6 9 5 4 11 6 5 3 7 1 5 3 6 5 7 2 2 3 3 1 3 1 2 2 3 4 9 10 9 3 3 1 0 2 1 4 1 3 4 5 5 2 7 6 7 7 7 10 8 7 7 7 8 4 5 4 4 3 1 1
2 2 1 2 3 2 3 5 5 9 9 1 3 2 0 2 2 0 2 2 3 3 3 4 6 6 6 5 1 1 3 4 6 6 4 3 8 4 4 5 6 7 3 2 4 3 3 2 7 2 2 4 6 1 2 8 7 9 11 11 12 9 4 4 7 3 1 3 4 3 10 3 5 3 8 8 10 8 4 2 4 3 2 2 2 1 1 1
2 4 2 2 1 3 6 7 3 1 3 5 6 4 2 1 2 0 1 1 4 2 1 5 2 3 2 3 3 6 6 4 4 4 4 6 5 1 1 2 5 10 11 8 8 2 4 3 8 4 7 8 2 0 2 1 1 1 3 6 6 3 7 5 6 4 2 1 5 2 1 11 7 4 5 5 3 3 4 4 1 1 1 1 1 2 2 3
3 3 1 5 4 2 5 1 2 3 2 2 1 3 2 2 3 2 2 1 1 1 2 3 3 3 1 2 1 4 8 4 8 8 3 3 0 2 1 1 4 9 6 1 4 3 6 4 4 1 2 3 2 2 1 1 1 1 2 2 5 7 5 6 3 7 8 2 1 1 2 9 2 2 2 4 5 5 4 4 3 0 1 2 1 1 3 3
3 3 1 2 1 0 5 5 7 6 3 1 2 1 1 2 2 2 0 0 3 1 2 2 0 0 3 1 2 6 5 4 3 4 1 2 3 2 4 1 6 7 7 6 9 7 4 3 8 2 2 3 3 2 2 2 1 3 2 3 3 3 5 2 5 1 1 8 8 8 8 8 2 4 3 2 3 0 1 3 4 0 1 2 3 3 3 4
4 2 2 2 3 1 6 1 3 4 3 5 3 4 3 2 1 3 4 2 1 3 2 0 0 2 3 0 2 2 2 1 1 1 2 0 1 2 4 4 3 4 1 2 1 7 4 4 8 8 11 10 7 8 13 13 10 2 1 1 4 8 6 4 4 1 4 3 7 5 10 4 2 3 3 1 1 1 1 2 2 3 3 3 3 3 3 3
2 4 2 2 1 2 2 2 4 4 5 5 5 2 3 3 1 3 5 1 1 2 2 3 1 5 4 2 2 1 3 2 2 3 5 2 1 1 1 5 3 1 2 3 1 5 3 1 5 9 13 14 13 3 2 11 5 6 6 9 6 6 9 6 5 4 11 6 8 9 12 12 3 1 1 4 2 5 5 2 4 4 5 7 6 4 4 4
1 3 3 3 2 1 2 2 4 6 6 4 4 3 6 3 2 1 0 1 1 2 1 1 2 3 1 4 3 2 0 2 2 5 3 5 1 1 4 2 3 5 1 2 3 4 3 3 8 8 10 10 4 3 6 8 9 11 10 9 11 10 10 11 11 14 13 2 9 10 10 8 15 4 5 6 5 4 4 5 5 4 6 7 3 2 5 5
3 1 2 0 2 6 8 6 7 8 4 6 2 3 6 7 3 4 1 1 2 0 3 1 1 0 6 6 4 4 3 2 1 3 2 1 3 1 2 3 1 4 1 1 1 3 5 5 3 4 8 7 1 2 6 4 7 9 12 12 12 12 11 14 16 19 8 9 17 14 7 11 20 11 11 11 8 10 10 11 9 5 4 3 1 2 3 4
1 0 1 2 1 1 4 4 8 7 9 10 1 5 5 9 8 4 4 3 2 1 2 3 5 5 5 3 3 3 4 5 4 0 3 2 2 2 1 1 0 4 1 1 1 1 3 4 2 2 7 6 3 4 3 8 4 1 5 9 14 14 16 19 20 19 17 13 14 17 8 16 19 7 12 13 7 6 5 2 2 3 5 2 1 3 4 5
0 1 0 2 3 3 2 7 8 8 8 10 6 6 6 9 9 2 2 4 4 3 3 3 4 6 6 6 5 5 7 5 6 4 3 5 1 1 3 3 3 1 2 3 2 2 4 3 4 2 2 5 4 3 3 7 6 6 6 6 9 13 16 19 18 17 13 10 11 12 11 14 15 6 4 6 2 3 1 3 7 7 5 4 4 5 5 5
1 1 0 3 3 0 1 5 8 9 5 6 7 5 5 10 10 9 3 3 6 6 5 10 6 6 4 4 3 6 4 5 5 6 9 7 6 6 5 3 5 5 1 1 1 0 3 3 3 3 3 5 1 6 4 2 0 3 5 6 9 11 12 11 11 9 7 12 15 14 14 16 12 9 6 4 4 6 8 9 9 8 5 3 5 7 6 7
1 0 1 1 2 1 3 0 4 7 7 8 7 5 6 9 4 7 1 2 3 6 11 11 8 7 2 6 12 13 9 4 4 1 6 1 4 2 1 4 8 8 5 4 0 3 2 4 3 2 4 5 1 4 7 5 3 4 11 16 18 13 10 6 9 11 15 15 14 11 17 18 9 6 6 4 6 9 8 8 7 6 6 6 7 8 7 7
Wind_Direction
180 179 166 170 177 177 180 186 194 195 195 197 198 196 196 197 196 195 187 188 193 198 203 215 220 217 158 130 166 105 88 100 90 92 139 240 204 162 125 116 131 136 118 96 83 105 335 11 89 332 53 62 321 84 280 52 30 55 72 114 90 196 150 202 173 186 205 135 214 180 200 144 210 169 201 103 33 61 355 204 305 299 233 259 271 279 243 160
177 171 162 173 178 181 181 191 196 196 196 195 195 197 197 200 200 195 187 183 187 199 206 215 226 206 134 131 88 92 101 65 105 188 218 160 152 158 134 125 133 140 122 85 139 146 134 269 91 55 78 67 323 71 16 349 70 93 119 90 208 176 233 158 193 188 117 246 164 182 159 175 216 146 221 118 282 36 132 279 11 309 292 328 329 197 136 149
174 165 166 170 180 182 187 193 194 196 195 194 194 195 199 197 197 192 184 177 186 194 204 221 223 197 139 109 95 95 90 54 8 252 248 168 165 165 147 130 145 152 143 147 194 145 165 188 183 96 12 99 8 149 47 307 63 199 117 190 254 204 224 205 159 192 206 135 142 150 203 160 252 146 122 198 176 67 197 208 324 254 242 246 301 137 150 153
172 157 150 169 180 187 190 191 194 201 195 194 197 198 195 190 192 189 178 177 184 192 205 220 218 171 126 80 82 123 79 70 244 239 280 156 157 168 155 138 143 128 100 66 135 110 115 90 75 93 68 71 315 33 116 288 95 210 85 164 231 193 123 220 182 217 202 156 145 144 94 153 244 209 161 160 113 258 264 233 181 202 213 187 189 169 159 159
170 154 157 175 187 192 190 190 196 201 196 199 195 193 182 192 195 182 173 169 176 199 212 222 221 160 102 81 113 126 111 41 260 224 285 180 155 161 155 139 131 105 119 139 93 60 78 113 95 41 85 137 8 35 30 3 101 94 201 206 192 193 55 255 189 188 156 187 116 132 136 206 105 65 117 149 172 221 214 229 212 207 169 157 170 182 168 169
160 159 160 175 194 191 191 196 196 191 195 194 187 183 188 193 181 176 164 171 187 195 228 235 225 126 99 113 106 97 130 181 299 353 307 164 168 159 148 125 128 112 112 74 105 118 96 24 94 104 28 85 148 134 245 131 334 178 321 305 201 228 112 322 306 273 142 129 143 146 198 104 149 181 206 176 204 231 231 249 224 196 175 169 151 152 170 175
160 159 162 173 192 192 200 196 192 194 196 186 181 178 195 184 178 166 179 184 189 204 227 247 234 124 123 109 120 103 190 266 355 274 304 130 157 156 128 108 106 106 90 99 108 118 95 108 90 167 96 74 354 110 170 82 29 103 186 92 299 199 35 288 292 269 203 139 182 182 109 130 143 192 117 206 242 218 128 268 259 166 133 152 150 178 174 184
158 162 160 168 189 200 202 190 193 200 192 180 182 195 203 199 192 185 196 215 204 229 249 253 209 152 155 135 108 232 104 259 178 305 340 98 69 127 108 73 95 106 118 155 140 128 125 134 151 167 72 142 201 121 262 100 25 103 160 202 183 91 298 330 53 80 125 89 333 116 132 241 180 168 91 246 246 253 288 56 91 130 137 151 166 177 190 192
159 161 164 168 186 198 197 190 195 199 188 181 185 198 208 206 211 216 222 240 243 258 272 261 238 167 223 90 119 117 242 239 143 359 284 111 125 125 155 112 103 125 134 94 137 162 131 236 123 194 215 124 158 97 311 127 294 144 163 117 81 57 324 332 69 46 44 111 86 89 31 329 236 228 250 239 255 320 218 72 117 127 147 171 183 186 184 193
163 164 170 175 171 173 114 56 206 189 176 181 188 210 213 218 215 224 237 242 252 270 287 289 273 206 157 100 73 177 260 231 329 23 129 129 120 105 41 129 114 122 118 124 100 121 164 198 170 185 122 78 116 94 143 115 209 136 97 91 93 310 315 0 124 360 334 103 309 145 243 158 325 90 279 349 284 316 91 98 135 151 180 192 189 192 199 194
167 169 172 170 161 164 144 124 216 180 177 178 210 220 213 219 216 228 242 244 260 274 292 279 268 184 138 107 129 217 190 91 116 5 192 145 132 117 166 158 160 92 106 165 184 179 172 149 153 123 41 217 114 53 108 192 124 79 134 104 25 345 58 6 71 10 351 46 34 134 162 290 302 102 230 254 327 300 152 139 163 184 196 201 205 200 205 215
170 170 162 158 159 160 156 154 149 163 168 189 221 230 215 198 203 233 237 251 269 291 274 294 310 152 70 102 162 212 197 195 35 4 177 173 113 159 187 173 158 154 140 159 215 230 168 158 132 88 176 138 74 132 70 112 71 147 208 120 313 3 14 4 93 322 9 62 6 287 73 302 209 228 249 257 333 69 148 177 210 225 228 230 225 221 216 221
171 160 154 154 160 166 164 165 168 167 173 205 233 223 188 177 230 239 240 272 290 265 269 270 85 82 93 115 239 227 229 226 92 143 45 55 100 50 95 127 134 137 157 140 189 200 149 137 112 86 44 96 149 120 173 77 25 117 46 119 40 9 342 315 312 326 85 263 0 351 239 267 257 250 272 345 5 32 119 245 239 238 245 252 244 229 240 238
170 160 155 156 162 168 173 175 171 182 189 204 226 195 185 232 254 269 272 271 299 262 196 87 86 101 155 239 262 233 232 164 145 102 2 277 95 44 57 35 73 60 35 98 85 120 108 84 90 117 123 96 134 262 68 359 21 132 275 60 119 90 244 309 4 312 138 336 0 116 197 286 276 284 299 307 356 154 245 254 261 258 254 246 241 244 243 245
167 161 156 155 161 166 176 180 187 189 189 194 198 184 205 255 280 286 289 304 265 229 198 100 94 125 106 268 295 282 213 122 86 12 281 135 123 71 47 44 52 52 86 104 129 79 112 92 85 52 84 291 102 81 34 47 18 35 77 273 327 163 276 295 23 14 172 330 30 93 313 243 261 277 292 330 350 163 246 264 269 270 263 248 239 240 245 246
162 157 156 157 162 170 179 189 188 186 188 180 195 122 22 286 289 291 296 232 204 176 89 121 136 116 100 277 205 51 68 131 175 238 280 126 114 135 167 121 135 27 51 33 61 98 45 82 72 166 120 36 65 98 71 75 345 5 96 258 227 95 253 347 157 12 332 134 6 151 224 318 329 253 280 336 55 78 239 279 276 271 263 255 245 240 249 269
159 158 159 162 168 178 179 178 178 187 177 172 176 181 263 267 283 283 246 84 9 72 110 187 143 162 158 273 16 198 212 233 324 53 359 10 131 150 105 61 39 65 63 77 21 56 2 63 287 46 27 120 157 106 89 4 305 258 43 149 211 173 242 250 306 317 6 97 217 10 234 235 245 286 292 319 79 34 275 274 280 271 260 254 246 234 240 243
161 164 167 173 178 171 172 178 186 181 173 160 159 155 193 63 195 159 95 53 42 145 262 176 123 110 263 36 188 222 194 136 88 166 86 302 111 74 92 98 39 86 76 74 359 75 333 64 29 173 28 48 124 103 150 203 182 193 169 100 277 282 217 229 136 225 22 16 177 347 277 276 276 286 287 272 246 288 267 260 275 286 281 278 266 259 247 245
163 172 171 175 170 158 172 181 181 177 171 163 180 197 213 75 64 99 87 47 104 82 100 196 149 148 207 216 228 39 197 171 129 85 73 32 16 99 61 80 92 116 101 78 264 109 350 75 41 77 152 153 193 174 168 195 156 184 179 176 144 153 221 208 245 281 160 161 244 229 231 277 293 296 292 290 168 205 261 282 283 276 273 270 260 254 253 246
167 174 166 174 172 166 179 180 176 177 170 160 159 124 69 77 42 74 3 13 218 189 218 188 130 173 69 10 131 259 284 104 124 347 21 264 122 61 38 56 36 58 109 157 109 83 106 131 174 189 188 186 192 169 156 163 143 107 84 101 166 162 272 276 285 279 316 107 242 244 278 277 278 273 276 280 100 288 277 270 258 257 262 258 257 252 250 249
172 176 179 181 174 178 179 175 176 178 157 110 158 140 158 172 121 208 180 250 193 243 254 291 162 143 100 139 273 156 123 358 59 33 193 186 147 111 299 37 60 93 11 179 136 261 67 141 228 200 192 184 158 127 108 75 61 138 138 135 195 238 129 237 127 346 316 153 282 41 326 274 263 274 271 280 330 271 251 256 261 259 249 249 249 260 252 246
177 181 183 182 176 176 176 174 171 174 137 124 145 156 272 204 93 226 125 165 239 257 20 189 127 57 342 183 274 133 69 87 52 22 324 105 42 136 281 100 130 157 319 111 60 94 155 198 223 197 120 96 98 90 71 119 114 61 145 154 103 246 249 292 294 339 328 74 266 17 346 281 275 267 272 260 252 242 237 219 239 243 264 258 249 250 266 287
177 184 181 176 173 172 173 168 171 139 112 145 191 175 225 240 310 239 106 96 94 304 61 80 121 99 29 317 278 303 87 129 173 263 246 43 89 146 141 110 107 126 74 164 152 130 170 280 236 148 140 111 64 89 96 76 70 112 102 119 195 234 122 251 284 341 354 70 320 321 325 284 284 283 266 266 253 266 254 250 254 235 247 251 249 251 264 272
182 181 179 172 167 171 166 168 141 117 217 209 176 199 190 84 328 344 63 149 164 270 98 259 147 163 164 147 211 103 117 212 121 192 330 108 139 185 98 128 119 114 182 174 153 160 186 258 345 133 151 139 135 125 118 121 123 5 115 122 120 163 225 149 185 350 333 39 55 3 307 301 330 331 327 323 329 311 291 325 278 260 243 263 288 282 247 259
178 178 173 160 166 165 170 134 136 180 103 94 274 246 240 107 92 54 98 41 22 59 198 6 122 257 192 43 12 142 241 88 33 252 281 114 131 88 152 172 106 175 138 160 110 122 267 342 134 103 110 96 119 145 179 131 74 5 229 167 192 172 138 256 14 104 22 335 1 51 359 315 303 290 248 282 345 322 303 331 283 269 273 283 269 264 272 254
173 171 165 159 165 173 148 126 235 133 145 194 218 189 151 106 40 286 98 69 211 241 27 191 161 197 126 154 26 137 116 130 274 233 85 207 173 132 116 65 98 193 161 138 159 170 187 5 92 158 142 134 137 165 211 139 155 116 238 167 146 138 119 119 111 77 11 146 354 8 152 269 320 293 287 324 336 306 312 263 270 294 302 280 260 269 271 266
164 166 166 170 179 164 139 225 154 132 135 259 228 153 169 93 2 116 62 13 331 185 152 282 87 203 57 223 141 122 137 241 127 31 48 345 110 344 124 194 43 37 153 165 57 233 97 63 72 67 100 121 141 179 219 148 122 202 254 122 114 110 125 150 104 105 183 252 294 38 96 218 306 284 260 321 321 301 313 298 305 311 299 294 286 279 277 275
173 169 176 183 177 169 208 130 132 165 201 246 105 135 114 136 90 39 79 100 248 131 127 242 232 343 87 303 55 135 207 171 105 227 123 290 131 12 91 200 158 161 173 103 179 270 121 153 150 136 83 111 175 220 174 137 127 219 199 122 118 129 135 113 90 103 146 23 280 331 329 299 253 267 316 352 330 307 290 291 302 301 301 302 307 304 297 279
177 179 180 176 172 167 90 139 160 171 233 152 135 103 105 100 80 127 130 152 242 81 283 101 279 53 19 4 46 27 63 13 130 218 312 55 34 160 86 204 117 111 32 133 167 219 349 152 215 145 125 173 239 339 150 95 95 248 129 93 95 81 72 89 101 79 339 67 273 232 354 195 277 277 330 333 233 265 269 283 285 285 299 308 317 321 315 307
182 177 178 165 158 185 144 83 206 229 111 126 132 112 67 67 131 128 112 230 114 198 78 234 140 197 143 136 31 358 102 343 91 349 34 138 339 40 24 149 114 85 60 23 75 176 222 312 174 88 174 176 129 42 127 9 108 132 108 76 43 39 29 31 64 84 58 358 253 255 303 151 295 275 231 144 213 199 258 302 287 303 324 321 303 290 304 315
178 181 175 164 171 168 123 162 241 154 149 123 120 80 81 44 144 100 196 220 58 50 28 172 180 76 140 151 160 315 79 350 57 136 99 356 25 46 138 53 47 56 55 15 44 332 25 4 71 189 91 114 106 75 25 71 92 119 97 127 77 1 11 29 346 32 116 270 261 275 279 31 182 290 289 238 280 233 200 249 283 306 317 312 312 312 310 303
180 179 173 170 157 139 151 206 164 142 152 151 98 103 123 127 348 188 197 40 153 190 154 187 293 154 172 74 70 143 138 46 341 151 146 168 148 145 198 150 159 85 193 179 199 358 42 95 247 350 200 125 124 87 359 1 352 80 91 73 109 235 37 292 13 280 214 200 240 332 191 353 241 232 258 291 264 247 217 219 235 261 294 301 305 302 298 296
176 172 162 154 135 168 187 135 122 142 118 102 78 61 114 121 195 206 137 189 254 127 222 101 179 166 149 117 153 144 354 139 238 73 103 30 134 239 317 155 178 135 186 222 99 94 274 285 13 322 64 226 144 126 140 165 331 105 131 136 101 105 59 242 277 256 307 293 266 311 233 268 252 272 244 246 258 163 209 218 229 239 258 282 284 301 313 314
161 160 155 147 139 136 130 128 138 128 115 84 103 81 53 151 223 85 135 197 168 3 72 114 91 80 156 162 189 172 103 314 152 170 104 145 132 176 233 293 133 77 79 158 147 190 114 298 255 144 219 160 151 157 175 158 159 204 58 136 174 142 155 206 195 205 215 205 288 281 66 231 112 241 221 217 250 273 259 256 258 260 258 260 282 288 296 304
151 145 125 118 101 80 127 141 140 123 95 116 103 165 171 210 110 165 173 185 250 51 54 176 126 138 181 26 69 263 134 129 167 122 159 145 197 192 187 195 230 114 142 127 251 103 201 199 274 313 253 159 166 261 109 99 45 350 160 84 88 224 138 132 209 142 232 351 356 241 216 190 177 278 283 243 279 287 277 278 245 262 258 290 302 317 293 290
116 118 117 112 116 189 129 138 126 101 123 121 143 179 206 186 191 182 192 149 119 123 127 61 74 126 91 83 311 202 333 109 218 111 227 196 233 191 198 167 181 192 159 167 175 166 41 223 355 309 53 82 104 270 352 136 179 221 105 193 206 128 98 98 63 13 78 44 259 159 309 288 297 321 277 316 305 278 313 300 309 267 280 316 318 330 287 283
91 117 118 132 113 173 135 134 123 98 100 147 158 203 190 30 184 167 92 145 187 138 141 137 232 145 173 193 180 193 207 80 177 129 214 148 285 193 208 238 154 168 216 127 224 208 146 223 344 69 157 353 234 100 104 32 141 94 173 228 173 135 124 125 210 352 63 187 265 84 235 298 21 283 327 343 289 278 291 273 281 288 298 322 302 289 289 306
114 76 78 89 84 119 136 140 101 70 94 139 208 174 326 98 226 123 244 104 101 60 130 158 211 92 191 153 199 172 222 158 191 160 178 182 232 180 152 167 207 186 183 278 139 227 120 88 329 8 20 291 347 255 45 4 41 142 198 192 113 222 203 322 90 251 159 267 272 298 281 261 188 239 333 0 214 249 254 257 297 280 284 284 303 311 312 315
72 95 97 170 156 160 166 127 85 98 118 182 213 174 241 108 91 161 202 174 101 129 151 221 132 235 141 185 160 151 164 183 161 192 144 234 196 208 185 151 204 215 173 141 82 156 65 139 286 344 122 296 2 96 194 204 349 43 96 83 95 101 157 124 197 177 124 241 52 288 36 254 197 215 202 220 231 222 238 279 255 233 247 261 286 283 269 308
104 89 46 67 110 128 193 115 77 98 141 201 191 212 183 103 211 265 283 150 95 115 208 154 239 122 162 194 162 164 211 154 169 196 193 191 190 302 192 268 163 190 163 152 127 166 157 122 186 303 295 75 188 200 215 156 147 83 89 155 145 35 224 105 29 128 183 174 182 247 312 279 260 216 188 217 211 220 196 214 237 238 253 257 266 256 277 301
339 78 97 66 135 173 152 111 143 188 191 3 84 154 52 173 193 237 354 103 112 321 152 152 159 155 178 116 241 154 143 149 173 174 189 192 192 198 230 179 148 154 123 54 103 185 100 174 178 123 71 225 237 267 179 170 179 165 164 190 171 130 138 158 254 35 95 123 231 135 260 245 271 180 204 210 224 222 246 235 246 243 249 261 266 286 142 355
97 136 201 352 226 187 156 145 151 58 111 147 185 156 170 147 76 120 46 7 96 116 20 103 21 117 132 138 149 161 140 162 173 178 241 175 209 123 298 67 163 149 145 181 181 232 142 127 105 174 202 200 201 20 271 336 76 184 167 224 176 166 108 125 193 243 43 255 106 162 302 273 240 211 219 242 305 276 235 217 222 218 237 242 288 291 308 241
151 151 348 21 10 189 160 93 90 117 121 227 37 57 62 74 118 216 113 332 84 56 52 54 186 103 266 137 191 150 163 177 168 200 176 167 257 206 293 47 167 159 134 57 62 226 84 96 95 329 316 318 321 316 37 63 90 336 306 94 146 200 180 170 160 177 163 167 131 332 261 254 295 19 268 253 265 274 271 208 227 269 266 272 268 278 250 251
94 112 9 326 76 343 166 174 175 157 130 47 84 125 44 156 128 111 137 297 134 33 130 167 57 306 152 113 125 172 200 154 236 164 253 221 168 65 334 62 176 168 155 213 164 204 157 260 137 117 25 345 343 346 354 348 104 205 183 209 189 92 80 136 104 95 159 218 172 131 231 266 271 329 312 334 347 285 245 256 223 269 288 249 241 253 254 258
107 31 37 312 352 37 173 165 106 110 130 143 143 144 151 47 260 165 144 156 84 131 109 63 194 142 55 167 90 75 21 120 139 246 99 141 154 8 12 28 257 187 72 281 38 162 181 172 138 156 180 188 197 196 214 209 198 201 216 151 179 147 140 113 212 93 218 265 146 194 249 243 299 329 321 324 328 243 285 256 231 219 222 271 262 250 290 313
163 152 183 36 20 46 19 19 119 128 143 153 132 193 128 129 356 345 100 59 124 103 83 134 38 88 101 97 89 120 169 1 98 183 147 175 276 349 291 3 116 186 240 51 26 136 168 154 195 189 195 207 212 194 53 104 97 191 219 159 191 187 179 172 104 137 213 213 172 225 226 248 241 309 277 245 230 177 180 253 215 224 252 253 249 287 291 301
60 113 156 175 80 222 185 122 149 143 177 175 145 157 175 150 144 47 318 105 243 137 89 83 188 114 236 108 163 106 186 103 17 82 216 140 245 233 316 93 80 48 51 93 10 79 83 181 224 209 225 226 195 162 212 148 168 207 181 189 186 177 180 178 182 219 216 107 260 231 228 251 248 210 243 240 245 250 252 227 235 263 256 252 307 328 312 311
136 256 76 265 145 181 175 211 177 172 158 158 175 134 167 146 164 151 63 359 122 269 110 334 57 221 164 172 143 144 160 111 120 167 87 313 99 359 72 9 85 316 359 86 344 136 143 193 253 155 250 236 121 177 177 190 187 193 195 183 183 188 179 187 215 227 182 190 231 240 160 221 252 207 209 218 199 202 207 216 212 223 273 298 322 303 304 281
92 106 177 318 162 296 182 123 148 160 161 166 123 153 173 173 180 162 150 129 102 225 184 171 205 191 151 158 127 146 166 137 246 106 158 144 152 115 72 33 332 20 80 61 88 178 112 241 196 158 228 245 214 173 181 181 211 191 201 196 193 181 192 200 216 221 212 217 230 247 195 221 242 231 194 228 206 208 230 254 312 285 247 239 207 247 263 282
293 90 318 13 67 80 91 136 153 157 171 170 164 204 174 184 184 126 123 146 160 208 154 205 166 171 166 171 159 167 205 188 159 151 224 131 175 106 182 184 153 359 36 151 146 268 151 252 109 133 173 261 216 146 157 196 183 217 237 206 196 200 205 209 216 227 227 249 262 268 269 267 257 209 187 250 221 222 323 258 228 234 243 235 250 269 283 305
109 90 133 116 93 261 92 146 158 164 158 182 187 205 184 187 192 165 188 203 162 158 165 204 151 157 185 174 209 231 198 173 135 165 172 152 164 217 135 244 140 147 86 87 73 47 151 244 67 90 182 275 214 159 184 102 152 226 251 231 209 200 215 223 224 226 200 220 232 244 256 257 262 113 201 188 136 180 211 234 251 256 267 309 295 277 276 270
48 305 100 97 107 283 154 311 148 148 205 196 181 177 182 200 164 144 163 280 228 179 181 184 173 140 172 165 204 211 217 178 136 132 172 154 93 105 85 150 148 145 167 142 211 111 142 130 133 138 172 243 326 130 117 111 73 281 244 231 216 213 211 221 232 232 219 210 221 219 238 243 241 172 176 215 184 209 213 220 244 271 261 232 236 240 241 247